Weather in Kirishi

Russia / Saint-Petersburg and Leningrad Oblast     59°26′58″N   32°00′31″E
В апреле 2022 года жителям России запретили посещать сайт meteo.paraplan.net по решению Генеральной прокуратуры. Аудитория сайта уменьшилась в 10 раз. Владельцы сайта не видят смысла в поддержке погодного сервера в таких условиях. Сайт будет закрыт в октябре.
temp.,
°C
wind,
m/s
gust,
m/s
humid.,
%
clouds,
%
prec.,
mm/h
press.,
hPa
HPBL,
m
30 september, fri
fri3000:00+6se2597100 0.7 1007188
03:00+6se2697100 1.7 1007235
06:00+7sse269893 0.0 1007219
09:00+7ssw389329 0.0 1009354
12:00+11sw4774100 0.0 1010797
15:00+9wsw2885100 0.1 1010520
18:00+8sw279267 0.5 1012457
21:00+6ssw289712 0.5 1013192
1 october, sat
sat100:00+5ssw28975 0.0 1014185
03:00+4ssw27976 0.0 1015146
06:00+4ssw259811 0.0 101590
09:00+6sw25925 0.0 1015169
12:00+11ssw237525 0.0 1015597
15:00+12s116489 0.0 1013976
18:00+9e1283100 0.0 101211
21:00+7ne2290100 0.0 101122
2 october, sun
sun200:00+6nne259699 0.0 101096
03:00+5n279739 0.0 1010144
06:00+4n279643 0.0 1009149
09:00+6n26860 0.0 1010207
12:00+11n34630 0.0 1010842
15:00+11n35535 0.0 10091009
18:00+7nne2676100 0.0 1010168
21:00+5nne2390100 0.0 101160
3 october, mon
mon300:00+4ne259250 0.0 101097
03:00+3ne2694100 0.0 1010122
06:00+4nne2892100 0.0 1009258
09:00+5nne3985100 0.0 1009413
12:00+6nne4981100 0.2 1007554
15:00+6n51292100 3.6 1004779
18:00+5nne61394100 4.4 1001896
21:00+5n61394100 12.9 997938
4 october, tue
tue400:00+6n61395100 6.1 993793
03:00+6nw3896100 9.8 990579
06:00+6sse4798100 1.1 990443
09:00+4s6996100 1.4 992634
12:00+4s51197100 1.6 995811
15:00+6ssw51095100 3.7 997813
18:00+6sw51095100 1.9 1000753
21:00+6sw3897100 3.5 1003482